Voltar ao catálogo

FENGYUN 1C DEB

AtivoPO
NORAD 31892·DEBRIS·🇨🇳 China

Lançado May 10, 1999 de Taiyuan Satellite Launch Center

Loading…

Próximas Passagens (próximas 24 horas)

TLE

EnvelhecendoSource: Space-Track

Época: Sep 7, 2026, 09:06 UTC

1 31892U 99025CKT 26250.37984774  .00001009  00000-0  25820-3 0  9992
2 31892  99.2947  89.0379 0195617 218.0527 140.6708 14.42290831687770

Acompanhe FENGYUN 1C DEB em tempo real com AllMySat

Download on the App Store